EW9634 Weather Reports


Display with metric or nautical units.
time (UTC)temp
F
wind
direction
speed
MPH
gust
MPH
rain 1hr
in
rain 24hr
in
rain mn
in
humidity
%
barometer
mb
20260503192322 78 203 9.0 12.0 0.00 0.00 0.00 49 1008.7
20260503191323 77 225 8.0 13.0 0.00 0.00 0.00 49 1008.8
20260503190322 77 225 10.0 12.0 0.00 0.00 0.00 47 1009.0
20260503185304 76 248 10.0 16.0 0.00 0.00 0.00 52 1009.2
20260503184302 76 225 11.0 14.0 0.00 0.00 0.00 48 1009.2
20260503183324 75 225 12.0 17.0 0.00 0.00 0.00 49 1009.4
20260503182304 74 203 10.0 17.0 0.00 0.00 0.00 50 1009.4
20260503181302 74 225 10.0 14.0 0.00 0.00 0.00 49 1009.6
20260503180302 74 225 10.0 16.0 0.00 0.00 0.00 53 1009.9
20260503175304 74 203 7.0 13.0 0.00 0.00 0.00 52 1010.1
20260503174329 73 248 11.0 16.0 0.00 0.00 0.00 52 1010.3
20260503173303 73 203 10.0 13.0 0.00 0.00 0.00 51 1010.5
20260503172304 72 225 10.0 14.0 0.00 0.00 0.00 51 1010.6
20260503171302 71 225 13.0 17.0 0.00 0.00 0.00 51 1010.8
20260503170302 71 248 10.0 16.0 0.00 0.00 0.00 51 1010.9
20260503150306 64 225 15.0 20.0 0.00 0.00 0.00 56 1011.2
20260503140302 57 203 6.0 9.0 0.00 0.00 0.00 62 1012.0
20260503131302 53 180 6.0 11.0 0.00 0.00 0.00 65 1012.1
20260503130301 52 225 7.0 10.0 0.00 0.00 0.00 65 1012.2
20260503110303 48 203 7.0 10.0 0.00 0.00 0.00 65 1012.3
20260503090303 49 203 5.0 8.0 0.00 0.00 0.00 66 1013.5
20260503081303 47 180 3.0 4.0 0.00 0.00 0.00 69 1013.8
20260503080303 47 180 2.0 4.0 0.00 0.00 0.00 70 1013.9
20260503072305 48 203 3.0 4.0 0.00 0.00 0.00 67 1014.1
20260503071303 48 180 2.0 5.0 0.00 0.00 0.00 67 1014.1
20260503070304 49 180 4.0 6.0 0.00 0.00 0.00 66 1014.2
20260503060303 50 203 4.0 6.0 0.00 0.00 0.00 63 1014.9
20260503054346 50 180 4.0 6.0 0.00 0.00 0.00 62 1015.1
20260503053303 50 180 3.0 6.0 0.00 0.00 0.00 64 1015.2
20260503052305 50 203 4.0 9.0 0.00 0.00 0.00 63 1015.1
20260503051323 50 180 3.0 5.0 0.00 0.00 0.00 64 1015.2
20260503050307 49 180 3.0 4.0 0.00 0.00 0.00 67 1015.3
20260503045308 50 158 2.0 4.0 0.00 0.00 0.00 66 1015.3
20260503044304 50 180 2.0 4.0 0.00 0.00 0.00 65 1015.5
20260503043303 51 180 2.0 4.0 0.00 0.00 0.00 64 1015.6
20260503042305 50 180 2.0 3.0 0.00 0.00 0.00 63 1015.5
20260503041303 50 180 2.0 3.0 0.00 0.00 0.00 63 1015.5
20260503040303 50 203 1.0 2.0 0.00 0.00 0.00 66 1015.7
20260503035343 50 180 1.0 1.0 0.00 0.00 0.00 65 1015.7
20260503034324 50 203 1.0 2.0 0.00 0.00 0.00 65 1015.8
20260503033323 50 203 2.0 4.0 0.00 0.00 0.00 66 1015.8
20260503032304 49 225 2.0 3.0 0.00 0.00 0.00 71 1015.8
20260503031303 49 225 1.0 2.0 0.00 0.00 0.00 69 1015.8
20260503030303 49 225 1.0 1.0 0.00 0.00 0.00 72 1015.9
20260503025305 50 225 1.0 2.0 0.00 0.00 0.00 70 1015.9
20260503024303 50 225 1.0 1.0 0.00 0.00 0.00 70 1015.9
20260503023303 52 225 2.0 3.0 0.00 0.00 0.00 59 1016.0
20260503022305 52 225 2.0 3.0 0.00 0.00 0.00 55 1016.0
20260503021303 52 225 1.0 2.0 0.00 0.00 0.00 67 1016.0
20260503020304 53 0.0 0.0 0.00 0.00 0.00 55 1015.9
20260503015305 53 0.0 0.0 0.00 0.00 0.00 54 1015.8
20260503014303 54 248 1.0 1.0 0.00 0.00 0.00 51 1015.7
20260503013303 54 248 1.0 2.0 0.00 0.00 0.00 51 1015.7
20260503012305 55 0.0 1.0 0.00 0.00 0.00 49 1015.6
20260503011304 57 248 1.0 2.0 0.00 0.00 0.00 47 1015.7
20260503010303 58 248 1.0 2.0 0.00 0.00 0.00 46 1015.7
20260503005324 58 248 1.0 2.0 0.00 0.00 0.00 48 1015.7
20260503004323 59 248 3.0 4.0 0.00 0.00 0.00 46 1015.8
20260503003303 60 270 3.0 4.0 0.00 0.00 0.00 44 1015.8
20260503002343 61 248 3.0 5.0 0.00 0.00 0.00 43 1015.7
20260503001304 61 270 3.0 3.0 0.00 0.00 0.00 42 1015.7
20260503000304 61 270 8.0 11.0 0.00 0.00 0.00 42 1015.7
20260502235304 62 270 8.0 9.0 0.00 0.00 0.00 39 1015.7
20260502234303 62 270 2.0 4.0 0.00 0.00 0.00 41 1015.8
20260502233323 62 270 3.0 4.0 0.00 0.00 0.00 37 1015.8
20260502232304 62 248 2.0 4.0 0.00 0.00 0.00 39 1015.9
20260502231303 62 270 6.0 8.0 0.00 0.00 0.00 42 1016.0
20260502230303 63 293 2.0 4.0 0.00 0.00 0.00 37 1016.1
20260502225304 63 293 5.0 6.0 0.00 0.00 0.00 38 1016.1
20260502224302 63 315 4.0 8.0 0.00 0.00 0.00 39 1016.3
20260502223302 63 338 4.0 6.0 0.00 0.00 0.00 36 1016.3
20260502222305 62 0.0 1.0 0.00 0.00 0.00 36 1016.3
20260502221303 62 293 8.0 10.0 0.00 0.00 0.00 38 1016.3
20260502220303 62 293 1.0 2.0 0.00 0.00 0.00 39 1016.4
20260502215305 62 338 1.0 3.0 0.00 0.00 0.00 34 1016.6
20260502214304 62 293 4.0 5.0 0.00 0.00 0.00 40 1016.7
20260502213303 62 270 3.0 5.0 0.00 0.00 0.00 36 1016.8
20260502212304 62 248 3.0 3.0 0.00 0.00 0.00 37 1016.8
20260502211302 62 270 4.0 8.0 0.00 0.00 0.00 39 1016.9
20260502210323 62 338 5.0 6.0 0.00 0.00 0.00 42 1017.0
20260502205322 61 270 5.0 7.0 0.00 0.00 0.00 42 1017.0
20260502204302 62 270 3.0 6.0 0.00 0.00 0.00 41 1017.1
20260502203307 61 68 2.0 2.0 0.00 0.00 0.00 44 1017.3
20260502202304 61 270 2.0 3.0 0.00 0.00 0.00 38 1017.4
20260502201322 61 338 4.0 5.0 0.00 0.00 0.00 39 1017.4
20260502200323 61 0 5.0 8.0 0.00 0.00 0.00 43 1017.6
20260502195304 61 0 5.0 9.0 0.00 0.00 0.00 45 1017.7
20260502194302 60 315 8.0 12.0 0.00 0.00 0.00 40 1017.8
20260502193324 61 315 13.0 15.0 0.00 0.00 0.00 40 1017.9